This demonstration page uses our WeatherBlox Daily Observations layout. Learn more.

Left ArrowRight Arrow

39.92423, -83.80882

Hourly Observations for December 9, 2015

Temp ( °F °C ) Dew Point ( °F °C ) Humidity (%) Winds ( mph kmh ) Pressure ( in mb ) Visibility ( mi km ) Precip ( " mm )
12:56 am 00:56 Clear 40 4.4 36 2.2 86 86 SSE 8 13 29.96 1014 10 16.0934 0 0
1:56 am 01:56 Clear 39 3.8 35 1.6 86 86 SSE 7 11 29.94 1014 10 16.0934 0 0
2:56 am 02:56 Clear 39 3.8 34 1.1 83 83 SSE 9 15 29.93 1014 10 16.0934 0 0
3:56 am 03:56 Clear 39 3.8 34 1.1 83 83 SSE 8 13 29.92 1013 10 16.0934 0 0
4:56 am 04:56 Clear 39 3.8 34 1.1 83 83 SSE 10 17 29.89 1012 10 16.0934 0 0
5:56 am 05:56 Clear 41 5 35 1.6 79 79 SSE 12 19 29.88 1012 10 16.0934 0 0
6:56 am 06:56 Partly Cloudy 41 5 35 1.6 79 79 S 8 13 29.88 1012 10 16.0934 0 0
7:56 am 07:56 Mostly Sunny 41 5 36 2.2 82 82 S 10 17 29.86 1011 10 16.0934 0 0
8:56 am 08:56 Mostly Sunny 44 6.6 37 2.7 76 76 S 12 19 29.85 1011 10 16.0934 0 0
9:56 am 09:56 Cloudy 47 8.3 39 3.8 74 74 S 12 19 29.85 1011 10 16.0934 0 0
10:56 am 10:56 Cloudy 49 9.4 40 4.4 71 71 S 13 20 29.85 1011 10 16.0934 0 0
11:16 am 11:16 Cloudy 52 11 39 4 62 62 S 13 20 29.83 1010 10 16.0934 0 0
11:56 am 11:56 Cloudy 51 10.5 41 5 69 69 SSW 14 22 29.83 1010 10 16.0934 0 0
12:56 pm 12:56 Cloudy 51 10.5 41 5 69 69 S 9 15 29.8 1009 10 16.0934 0 0
1:56 pm 13:56 Cloudy 52 11.1 42 5.5 69 69 SSW 9 15 29.79 1009 10 16.0934 0 0
2:56 pm 14:56 Cloudy 52 11.1 43 6.1 72 72 S 13 20 29.78 1009 10 16.0934 0 0
3:49 pm 15:49 Cloudy 52 11 43 6 72 72 S 10 17 29.77 1008 10 16.0934 0 0
3:56 pm 15:56 Cloudy 52 11.1 43 6.1 72 72 SSW 9 15 29.79 1009 10 16.0934 0 0
4:22 pm 16:22 Cloudy 52 11 45 7 77 77 SSW 9 15 29.8 1009 10 16.0934 0 0
4:35 pm 16:35 Cloudy 52 11 45 7 77 77 SSW 10 17 29.8 1009 10 16.0934 0 0
4:45 pm 16:45 Cloudy 52 11 45 7 77 77 SSW 9 15 29.8 1009 10 16.0934 0 0
4:56 pm 16:56 Cloudy 51 10.5 44 6.6 77 77 SW 8 13 29.82 1010 10 16.0934 0 0
5:03 pm 17:03 Cloudy 52 11 45 7 77 77 SW 10 17 29.8 1009 10 16.0934 0 0
5:27 pm 17:27 Cloudy 52 11 45 7 77 77 WSW 12 19 29.83 1010 10 16.0934 0 0
5:56 pm 17:56 Cloudy 51 10.5 44 6.6 77 77 SW 9 15 29.85 1011 10 16.0934 0 0
6:56 pm 18:56 Clear 46 7.7 42 5.5 86 86 WSW 8 13 29.87 1012 10 16.0934 0 0
7:56 pm 19:56 Clear 45 7.2 41 5 86 86 SSW 7 11 29.89 1012 10 16.0934 0 0
8:56 pm 20:56 Clear 45 7.2 42 5.5 89 89 SSW 6 9 29.9 1012 10 16.0934 0 0
9:56 pm 21:56 Clear 43 6.1 41 5 93 93 SSW 8 13 29.91 1013 10 16.0934 0 0
10:56 pm 22:56 Clear 44 6.6 42 5.5 93 93 SSW 8 13 29.91 1013 10 16.0934 0 0
11:56 pm 23:56 Clear 42 5.5 41 5 97 97 S 5 7 29.92 1013 10 16.0934 0 0

Powered by AerisWeather